Flag for Finland Weather past 2 weeks in Jyväskylä, Finland

Now
45 °F

Clear.


Feels Like: 45 °F
Forecast: 49 / 58 °F
Wind: 2 mph from North

Location: Jyvaskyla Airport

Current Time: Sep 1, 2015 at 11:34:06 PM

Latest Report: Sep 1, 2015 at 11:20 PM


Visibility: 10 mi

Pressure: 29.95 "Hg

Humidity: 100%

Dew point: 45 °F

Location of JyväskyläLocation

Historic Weather in Jyväskylä — Graph

°F

Jyväskylä temperature yesterday

Maximum temperature yesterday: 66 °F (at 4:50 PM)
Minimum temperature yesterday: 41 °F (at 5:50 AM)
Average temperature yesterday: 54 °F

Past Weeks' High & Low Weather Summary

 TemperatureHumidityPressure
High77 °F (Aug 23, 3:50 PM)100% (Aug 18, 4:20 AM)30.42 "Hg (Aug 18, 4:20 AM)
Low41 °F (Aug 18, 5:20 AM)27% (Aug 21, 3:20 PM)29.56 "Hg (Aug 28, 4:20 PM)
Average60 °F75%30.10 "Hg
* Reported Aug 17 10:20 PM — Sep 1 10:20 PM, Jyväskylä, Weather by CustomWeather, © 2015

Note: Actual official high and low records may vary slightly from our data, if they occured in-between our weather recording intervals... More about our weather records

Advertising

Jyväskylä weather history for previous 24 hours

 ConditionsComfort  
Time TempWeatherWind HumidityBarometerVisibility
10:20 PM
Tue, Sep 1
48 °FCool.2 mph94%29.95 "HgN/A
9:50 PM50 °FClear.1 mph100%29.95 "Hg10 mi
9:20 PM52 °FSunny.2 mph94%29.95 "Hg10 mi
8:50 PM54 °FSunny.2 mph88%29.95 "Hg10 mi
8:20 PM57 °FSunny.2 mph82%29.92 "Hg10 mi
7:50 PM57 °FSunny.2 mph82%29.92 "Hg10 mi
7:20 PM59 °FSunny.5 mph72%29.92 "Hg10 mi
6:50 PM59 °FSunny.6 mph77%29.92 "Hg10 mi
6:20 PM61 °FScattered showers. Partly sunny.8 mph72%29.92 "HgN/A
5:50 PM63 °FSunny.9 mph68%29.92 "Hg10 mi
5:20 PM63 °FSunny.6 mph68%29.92 "Hg10 mi
4:50 PM61 °FSunny.5 mph77%29.92 "Hg10 mi
4:20 PM59 °FSprinkles. Overcast.2 mph82%29.95 "HgN/A
3:50 PM59 °FSprinkles. Scattered clouds.12 mph72%29.92 "HgN/A
3:20 PM63 °FScattered showers. Scattered clouds.10 mph56%29.92 "HgN/A
2:50 PM63 °FScattered showers. Scattered clouds.9 mph56%29.92 "HgN/A
2:20 PM68 °FScattered clouds.3 mph49%29.92 "HgN/A
1:50 PM66 °FPassing clouds.7 mph49%29.92 "HgN/A
1:20 PM68 °FPassing clouds.7 mph49%29.92 "HgN/A
12:50 PM66 °FPassing clouds.3 mph49%29.95 "HgN/A
12:20 PM64 °FPassing clouds.5 mph60%29.95 "HgN/A
11:50 AM64 °FPassing clouds.2 mph60%29.95 "HgN/A
11:20 AM63 °FPassing clouds.3 mph64%29.95 "HgN/A
10:50 AM61 °FSunny.2 mph72%29.95 "Hg10 mi
10:20 AM59 °FPassing clouds.3 mph77%29.95 "HgN/A
9:50 AM57 °FSunny.2 mph77%29.95 "Hg10 mi
9:20 AM52 °FSunny.5 mph94%29.95 "Hg10 mi
8:50 AM52 °FSunny.1 mph88%29.95 "Hg10 mi
8:20 AM46 °FSunny.No wind93%29.98 "Hg10 mi
7:50 AM45 °FSunny.1 mph93%29.98 "Hg10 mi
6:50 AM41 °FPassing clouds.2 mph93%29.98 "HgN/A
5:50 AM41 °FPassing clouds.1 mph100%29.98 "HgN/A
5:20 AM43 °FLight fog.No wind100%29.98 "Hg1 mi
4:50 AM41 °FLight fog.2 mph100%29.98 "HgN/A
4:20 AM43 °FLight fog.1 mph100%29.98 "Hg0 mi
3:50 AM43 °FLight fog.No wind100%29.98 "Hg6 mi
3:20 AM45 °FLight fog.No wind100%29.98 "Hg3 mi
2:50 AM45 °FQuite cool.No wind100%29.98 "Hg3 mi
2:20 AM46 °FLight fog.No wind100%29.98 "Hg1 mi
1:50 AM48 °FCool.No wind100%29.98 "HgN/A
1:20 AM48 °FPassing clouds.No wind100%29.98 "HgN/A
12:20 AM50 °FPassing clouds.1 mph94%30.01 "HgN/A
11:50 PM
Mon, Aug 31
50 °FClear.1 mph94%29.98 "Hg10 mi
11:20 PM52 °FClear.No wind94%29.98 "Hg10 mi
Weather by CustomWeather, © 2015

See weather overviewHow to use our weather pages